AAL717 KSEA-KDFW

Flight info

Callsign AAL717
Flight time N/A
Altitude 35000
Route SUMMA2 SUMMA J54 BKE HLE KD60S/N0448F370 KD45W PNH MDANO JOVEM6
Aircraft A321/M-SDE3FGHIRWY/LB1

Departure

Time 2026-05-07 18:26
Airport Seattle–Tacoma International Airport (KSEA)

Arrival

Time N/A
Airport Dallas Fort Worth International Airport (KDFW)
Time Latitude Longitude Altitude Speed Heading
2026-05-07 18:10 47.44650 -122.30028 394 ft 0 kts 143°
2026-05-07 18:16 47.44658 -122.30036 394 ft 3 kts 142°
2026-05-07 18:16 47.44676 -122.30057 394 ft 3 kts 142°
2026-05-07 18:17 47.44695 -122.30073 394 ft 3 kts 181°
2026-05-07 18:17 47.44704 -122.30075 394 ft 3 kts 217°
2026-05-07 18:17 47.44698 -122.30088 394 ft 0 kts 234°
2026-05-07 18:18 47.44689 -122.30107 394 ft 5 kts 235°
2026-05-07 18:19 47.44677 -122.30172 394 ft 9 kts 267°
2026-05-07 18:19 47.44696 -122.30273 394 ft 12 kts 302°
2026-05-07 18:19 47.44748 -122.30379 394 ft 12 kts 307°
2026-05-07 18:19 47.44793 -122.30468 394 ft 9 kts 303°
2026-05-07 18:20 47.44805 -122.30549 394 ft 7 kts 272°
2026-05-07 18:20 47.44812 -122.30609 394 ft 5 kts 297°
2026-05-07 18:20 47.44838 -122.30629 394 ft 4 kts 351°
2026-05-07 18:20 47.44864 -122.30629 394 ft 5 kts 359°
2026-05-07 18:21 47.44912 -122.30628 394 ft 9 kts
2026-05-07 18:21 47.44993 -122.30626 394 ft 14 kts
2026-05-07 18:21 47.45100 -122.30625 394 ft 16 kts
2026-05-07 18:21 47.45217 -122.30624 394 ft 17 kts 360°
2026-05-07 18:22 47.45338 -122.30625 390 ft 18 kts 360°
2026-05-07 18:22 47.45422 -122.30625 393 ft 18 kts 360°
2026-05-07 18:22 47.45598 -122.30623 393 ft 19 kts
2026-05-07 18:22 47.45733 -122.30622 392 ft 20 kts
2026-05-07 18:23 47.45875 -122.30620 391 ft 21 kts
2026-05-07 18:23 47.46021 -122.30619 394 ft 21 kts
2026-05-07 18:23 47.46171 -122.30618 394 ft 21 kts
2026-05-07 18:23 47.46295 -122.30616 390 ft 17 kts
2026-05-07 18:24 47.46369 -122.30639 392 ft 0 kts 317°
2026-05-07 18:24 47.46372 -122.30642 392 ft 1 kts 317°
2026-05-07 18:24 47.46383 -122.30663 391 ft 5 kts 295°
2026-05-07 18:24 47.46366 -122.30753 391 ft 11 kts 242°
2026-05-07 18:25 47.46295 -122.30780 394 ft 12 kts 179°
2026-05-07 18:25 47.46134 -122.30782 394 ft 49 kts 180°
2026-05-07 18:25 47.45542 -122.30787 394 ft 118 kts 180°
2026-05-07 18:25 47.44527 -122.30792 395 ft 171 kts 180°
2026-05-07 18:26 47.43310 -122.30798 993 ft 172 kts 181°
2026-05-07 18:26 47.42119 -122.30808 1773 ft 171 kts 181°
2026-05-07 18:26 47.40914 -122.30810 2390 ft 178 kts 180°
2026-05-07 18:26 47.39617 -122.30812 2628 ft 200 kts 180°
2026-05-07 18:27 47.38150 -122.30819 2852 ft 221 kts 180°
2026-05-07 18:27 47.36518 -122.30831 3043 ft 247 kts 180°
2026-05-07 18:27 47.34740 -122.30846 3583 ft 260 kts 180°
2026-05-07 18:27 47.33505 -122.30860 4065 ft 264 kts 180°
2026-05-07 18:28 47.31031 -122.30890 5036 ft 271 kts 180°
2026-05-07 18:28 47.29126 -122.30916 5755 ft 274 kts 181°
2026-05-07 18:28 47.27203 -122.30943 6479 ft 278 kts 181°
2026-05-07 18:28 47.25255 -122.30963 7173 ft 282 kts 179°
2026-05-07 18:29 47.23335 -122.30336 7823 ft 288 kts 154°
2026-05-07 18:29 47.21546 -122.28976 8500 ft 291 kts 155°
2026-05-07 18:29 47.19657 -122.27842 9208 ft 294 kts 160°
2026-05-07 18:29 47.17706 -122.26853 9924 ft 298 kts 162°
2026-05-07 18:30 47.15714 -122.25912 10477 ft 307 kts 162°
2026-05-07 18:30 47.13628 -122.24933 10611 ft 329 kts 162°
2026-05-07 18:30 47.11366 -122.23850 10736 ft 351 kts 162°